Location: Boussac
(44.2782°N, 2.3665°E)
Time: 08:27:20
(UTC+00:00)

Meteor 1-16 - Pass Details

Date: 15 May 2026
Orbit: 815 x 873 km, 81.2° (Epoch: 6 June)

Event Time Altitude Azimuth Distance (km) Brightness Sun altitude
Rises 23:36:37 0° 349° (N) 3,359 9.1 -26.6°
Reaches altitude 10° 23:39:01 10° 350° (N) 2,419 8.1 -26.6°
Maximum altitude 23:44:30 87° 82° (E) 823 4.5 -26.7°
Enters shadow 23:44:42 83° 145° (SE) 827 4.5 -26.7°
